Total_Precipitation_Accumulation
0.00 0.00 0.00 0.01 0.01 0.01 0.01 0.02 0.01 0.01 0.01 0.01 0.01 0.00 0.00 0.00 0.00 0.00 0.00 0.00 0.00 0.00 0.00 0.00 0.00 0.02 0.01 0.00 0.00 0.00 0.00 0.00 0.00 0.00 0.00 0.00 0.00 0.00 0.00 0.00 0.00 0.00 0.00 0.00 0.00 0.00 0.00
0.00 0.00 0.00 0.01 0.01 0.01 0.02 0.02 0.01 0.01 0.01 0.01 0.01 0.00 0.00 0.00 0.00 0.00 0.00 0.00 0.00 0.00 0.00 0.00 0.01 0.03 0.00 0.00 0.00 0.00 0.00 0.00 0.00 0.00 0.00 0.00 0.00 0.00 0.00 0.00 0.00 0.00 0.00 0.00 0.00 0.00 0.00
0.00 0.00 0.01 0.01 0.01 0.01 0.01 0.01 0.00 0.00 0.01 0.01 0.01 0.00 0.00 0.00 0.00 0.00 0.00 0.00 0.00 0.00 0.00 0.00 0.00 0.01 0.00 0.00 0.00 0.00 0.00 0.00 0.00 0.00 0.00 0.00 0.00 0.00 0.00 0.00 0.00 0.00 0.00 0.00 0.00 0.00 0.00
0.00 0.01 0.01 0.01 0.01 0.00 0.00 0.01 0.01 0.01 0.01 0.01 0.01 0.00 0.00 0.00 0.00 0.00 0.00 0.00 0.00 0.00 0.00 0.00 0.00 0.00 0.00 0.00 0.00 0.00 0.00 0.00 0.00 0.00 0.00 0.00 0.00 0.00 0.00 0.00 0.00 0.00 0.00 0.00 0.00 0.00 0.00
0.01 0.01 0.01 0.01 0.00 0.01 0.01 0.01 0.01 0.01 0.01 0.01 0.01 0.00 0.00 0.00 0.00 0.00 0.00 0.00 0.00 0.00 0.00 0.00 0.00 0.00 0.00 0.00 0.00 0.00 0.00 0.00 0.00 0.00 0.00 0.00 0.00 0.00 0.00 0.00 0.00 0.00 0.00 0.00 0.00 0.00 0.00
0.01 0.01 0.00 0.01 0.01 0.02 0.02 0.02 0.01 0.02 0.02 0.01 0.01 0.00 0.00 0.00 0.00 0.00 0.00 0.00 0.00 0.00 0.00 0.00 0.00 0.00 0.00 0.00 0.00 0.00 0.00 0.00 0.00 0.00 0.00 0.00 0.00 0.00 0.00 0.00 0.00 0.00 0.00 0.00 0.00 0.00 0.00
0.00 0.01 0.01 0.01 0.01 0.02 0.02 0.02 0.02 0.02 0.02 0.01 0.00 0.00 0.00 0.00 0.00 0.00 0.00 0.00 0.00 0.00 0.00 0.00 0.00 0.00 0.00 0.00 0.00 0.00 0.00 0.00 0.00 0.00 0.00 0.00 0.00 0.00 0.00 0.00 0.00 0.00 0.00 0.00 0.00 0.00 0.00
0.01 0.01 0.01 0.01 0.01 0.02 0.01 0.01 0.01 0.02 0.01 0.01 0.00 0.00 0.00 0.00 0.00 0.00 0.00 0.00 0.00 0.00 0.00 0.00 0.00 0.00 0.00 0.00 0.00 0.00 0.00 0.00 0.00 0.00 0.00 0.00 0.00 0.00 0.00 0.00 0.00 0.00 0.00 0.00 0.00 0.00 0.00
0.01 0.01 0.01 0.01 0.01 0.01 0.01 0.01 0.01 0.02 0.01 0.01 0.00 0.00 0.00 0.00 0.00 0.00 0.00 0.00 0.00 0.00 0.01 0.00 0.00 0.00 0.00 0.00 0.00 0.00 0.00 0.00 0.00 0.00 0.00 0.01 0.00 0.00 0.00 0.02 0.04 0.04 0.04 0.01 0.00 0.00 0.00
0.01 0.01 0.01 0.01 0.01 0.02 0.01 0.01 0.01 0.01 0.00 0.00 0.00 0.00 0.00 0.00 0.00 0.00 0.00 0.00 0.00 0.00 0.00 0.00 0.00 0.00 0.00 0.00 0.00 0.00 0.00 0.00 0.00 0.00 0.00 0.00 0.00 0.01 0.03 0.03 0.06 0.06 0.01 0.01 0.00 0.02 0.02
0.01 0.01 0.01 0.01 0.01 0.01 0.01 0.01 0.01 0.01 0.01 0.00 0.00 0.00 0.00 0.00 0.00 0.00 0.00 0.00 0.00 0.00 0.00 0.00 0.00 0.00 0.00 0.00 0.00 0.00 0.00 0.00 0.00 0.00 0.03 0.03 0.00 0.01 0.03 0.04 0.08 0.14 0.02 0.06 0.03 0.03 0.06
0.01 0.01 0.01 0.01 0.01 0.01 0.01 0.01 0.01 0.01 0.01 0.00 0.00 0.00 0.00 0.00 0.00 0.00 0.00 0.00 0.00 0.00 0.00 0.00 0.00 0.00 0.00 0.00 0.00 0.00 0.00 0.00 0.00 0.00 0.00 0.02 0.00 0.00 0.02 0.01 0.02 0.09 0.03 0.02 0.06 0.14 0.29
0.01 0.01 0.01 0.01 0.01 0.01 0.01 0.01 0.01 0.01 0.01 0.00 0.00 0.00 0.00 0.00 0.00 0.00 0.00 0.00 0.00 0.00 0.00 0.00 0.00 0.00 0.00 0.00 0.00 0.00 0.00 0.00 0.03 0.06 0.02 0.00 0.00 0.00 0.01 0.02 0.01 0.06 0.14 0.18 0.12 0.19 0.17
0.01 0.02 0.02 0.01 0.02 0.02 0.02 0.02 0.01 0.02 0.01 0.00 0.00 0.00 0.00 0.00 0.00 0.00 0.00 0.00 0.00 0.00 0.00 0.00 0.00 0.00 0.00 0.00 0.00 0.00 0.00 0.00 0.02 0.09 0.10 0.06 0.01 0.00 0.01 0.05 0.08 0.03 0.14 0.35 0.35 0.15 0.11
0.01 0.02 0.01 0.02 0.01 0.02 0.02 0.02 0.02 0.02 0.01 0.01 0.00 0.00 0.00 0.00 0.00 0.00 0.00 0.00 0.01 0.01 0.01 0.00 0.00 0.00 0.00 0.00 0.00 0.00 0.00 0.00 0.03 0.07 0.23 0.16 0.11 0.00 0.00 0.00 0.03 0.07 0.07 0.14 0.34 0.14 0.17
0.01 0.02 0.02 0.02 0.02 0.02 0.02 0.02 0.02 0.01 0.02 0.03 0.00 0.00 0.00 0.00 0.00 0.00 0.00 0.00 0.00 0.00 0.00 0.00 0.00 0.00 0.01 0.00 0.00 0.00 0.00 0.00 0.02 0.07 0.13 0.25 0.29 0.01 0.00 0.01 0.03 0.16 0.19 0.25 0.30 0.45 0.26
0.01 0.01 0.01 0.02 0.02 0.01 0.01 0.02 0.02 0.01 0.04 0.04 0.01 0.00 0.00 0.00 0.00 0.01 0.03 0.01 0.00 0.00 0.00 0.01 0.01 0.01 0.01 0.02 0.01 0.00 0.01 0.01 0.04 0.04 0.02 0.07 0.23 0.08 0.00 0.02 0.05 0.13 0.37 0.49 0.51 0.53 0.51
0.01 0.02 0.01 0.02 0.01 0.01 0.01 0.01 0.01 0.02 0.05 0.02 0.02 0.02 0.00 0.00 0.01 0.03 0.03 0.01 0.01 0.00 0.00 0.01 0.02 0.04 0.06 0.06 0.09 0.03 0.01 0.05 0.08 0.10 0.10 0.11 0.33 0.19 0.02 0.01 0.04 0.09 0.27 0.42 0.56 0.42 0.52
0.01 0.02 0.01 0.01 0.02 0.01 0.01 0.01 0.01 0.01 0.05 0.07 0.08 0.04 0.00 0.01 0.02 0.02 0.01 0.01 0.02 0.01 0.01 0.04 0.06 0.06 0.07 0.08 0.25 0.08 0.08 0.05 0.08 0.11 0.18 0.33 0.29 0.26 0.04 0.02 0.04 0.10 0.17 0.31 0.43 0.61 0.44
0.01 0.01 0.01 0.02 0.02 0.02 0.01 0.01 0.01 0.01 0.06 0.09 0.13 0.11 0.03 0.03 0.03 0.04 0.10 0.09 0.02 0.02 0.05 0.07 0.05 0.06 0.10 0.10 0.16 0.26 0.09 0.06 0.05 0.08 0.17 0.60 0.64 0.37 0.30 0.15 0.21 0.23 0.10 0.08 0.29 0.54 0.45
0.01 0.01 0.01 0.01 0.01 0.02 0.01 0.02 0.02 0.03 0.07 0.08 0.19 0.14 0.05 0.03 0.03 0.06 0.08 0.05 0.03 0.02 0.05 0.06 0.08 0.10 0.28 0.27 0.07 0.02 0.02 0.02 0.00 0.02 0.08 0.28 0.34 0.16 0.18 0.27 0.26 0.25 0.17 0.14 0.18 0.21 0.25
0.01 0.01 0.01 0.02 0.02 0.03 0.02 0.04 0.02 0.04 0.06 0.05 0.15 0.16 0.19 0.13 0.07 0.05 0.06 0.09 0.06 0.04 0.12 0.08 0.18 0.15 0.15 0.19 0.22 0.15 0.12 0.14 0.15 0.06 0.10 0.33 0.43 0.19 0.17 0.15 0.19 0.31 0.21 0.21 0.22 0.26 0.34
0.01 0.01 0.02 0.02 0.03 0.03 0.02 0.05 0.02 0.04 0.08 0.11 0.14 0.15 0.23 0.16 0.07 0.13 0.09 0.09 0.08 0.15 0.19 0.12 0.32 0.24 0.11 0.07 0.12 0.15 0.19 0.24 0.28 0.24 0.29 0.42 0.37 0.38 0.21 0.12 0.21 0.25 0.17 0.11 0.16 0.21 0.27
0.01 0.01 0.01 0.02 0.03 0.02 0.03 0.04 0.02 0.03 0.11 0.14 0.13 0.21 0.33 0.23 0.10 0.09 0.06 0.07 0.09 0.09 0.38 0.19 0.09 0.13 0.05 0.03 0.06 0.09 0.12 0.14 0.19 0.30 0.32 0.35 0.31 0.44 0.37 0.31 0.30 0.18 0.19 0.14 0.12 0.14 0.16
0.01 0.01 0.01 0.01 0.02 0.01 0.03 0.02 0.02 0.03 0.08 0.08 0.07 0.18 0.28 0.31 0.12 0.07 0.08 0.11 0.09 0.12 0.15 0.04 0.02 0.02 0.02 0.05 0.13 0.11 0.07 0.11 0.15 0.13 0.04 0.12 0.34 0.47 0.45 0.25 0.19 0.14 0.11 0.14 0.16 0.13 0.14
0.01 0.01 0.01 0.01 0.01 0.01 0.02 0.02 0.03 0.03 0.05 0.06 0.03 0.11 0.28 0.49 0.19 0.15 0.19 0.17 0.29 0.15 0.01 0.00 0.00 0.00 0.00 0.07 0.15 0.15 0.15 0.12 0.17 0.09 0.02 0.03 0.10 0.25 0.19 0.19 0.13 0.08 0.07 0.14 0.19 0.15 0.09
0.01 0.01 0.00 0.01 0.01 0.01 0.01 0.02 0.02 0.03 0.04 0.06 0.02 0.09 0.30 0.60 0.27 0.21 0.41 0.43 0.27 0.13 0.09 0.04 0.02 0.01 0.03 0.14 0.22 0.32 0.30 0.20 0.30 0.08 0.05 0.03 0.03 0.06 0.06 0.23 0.17 0.08 0.08 0.13 0.17 0.14 0.11
0.00 0.00 0.00 0.01 0.01 0.00 0.01 0.01 0.02 0.02 0.03 0.07 0.02 0.07 0.29 0.64 0.43 0.30 0.29 0.22 0.13 0.19 0.21 0.07 0.07 0.14 0.19 0.18 0.17 0.13 0.21 0.25 0.11 0.06 0.04 0.04 0.06 0.06 0.05 0.10 0.11 0.05 0.07 0.13 0.17 0.14 0.13
0.00 0.00 0.00 0.01 0.00 0.01 0.01 0.01 0.01 0.02 0.03 0.07 0.05 0.05 0.15 0.44 0.51 0.22 0.21 0.18 0.25 0.33 0.23 0.07 0.14 0.26 0.46 0.38 0.24 0.29 0.20 0.10 0.09 0.10 0.04 0.09 0.11 0.11 0.12 0.14 0.13 0.14 0.17 0.22 0.16 0.13 0.13